Location: Newark
(7.0858°N, 171.3717°E)
Time: 16:19:33
(UTC+00:00)

Altair - Pass Details

Date: 30 November 2020
Orbit: 1501 x 1682 km, 47.2° (Epoch: 20 January)

Event Time Altitude Azimuth Distance (km) Brightness Sun altitude
Rises 07:48:43 0° 254° (WSW) 4,817 11.6 -22.4°
Reaches altitude 10° 07:52:46 10° 267° (W) 3,799 10.5 -23.4°
Maximum altitude 07:59:53 23° 316° (NW) 2,849 9.1 -25.0°
Drops below altitude 10° 08:06:51 10° 5° (N) 3,694 9.2 -26.6°
Enters shadow 08:07:11 - 7° (N) 3,769 9.3 -26.7°
